W7YP Weather Reports


time (UTC)temp
C
wind
direction
speed
KPH
gust
KPH
rain 1hr
cm
rain 24hr
cm
rain mn
cm
humidity
%
barometer
mb
20260507183620 14 95 0.0 4.8 0.00 0.94 0.89 87 1015.3
20260507183116 13 101 0.0 9.7 0.00 0.94 0.89 87 1015.3
20260507182615 13 99 1.6 9.7 0.00 0.94 0.89 86 1015.4
20260507182116 13 116 0.0 4.8 0.00 0.94 0.89 88 1015.4
20260507181616 13 116 0.0 1.6 0.00 0.94 0.89 88 1015.4
20260507181116 13 117 0.0 0.0 0.00 0.94 0.89 89 1015.4
20260507180616 13 117 0.0 1.6 0.00 0.94 0.89 88 1015.5
20260507180112 13 117 0.0 1.6 0.00 0.94 0.89 88 1015.4
20260507175607 12 115 0.0 3.2 0.00 0.94 0.89 89 1015.4
20260507175553 12 115 0.0 3.2 0.00 0.94 0.89 88 1015.4
20260507174602 12 116 0.0 3.2 0.00 0.94 0.89 89 1015.3
20260507174102 12 116 0.0 4.8 0.00 0.94 0.89 89 1015.3
20260507173552 12 150 1.6 6.4 0.00 0.94 0.89 88 1015.4
20260507173055 12 163 0.0 6.4 0.00 0.94 0.89 88 1015.4
20260507172553 12 71 0.0 1.6 0.00 0.94 0.89 91 1015.3
20260507172048 12 70 0.0 6.4 0.00 0.94 0.89 92 1015.3
20260507171547 12 70 1.6 11.3 0.00 0.94 0.89 92 1015.4
20260507171306 12 133 0.0 11.3 0.00 0.94 0.89 94 1015.4
20260507170537 12 108 1.6 9.7 0.00 0.94 0.89 95 1015.4
20260507170303 11 58 0.0 3.2 0.00 0.94 0.89 96 1015.4
20260507165536 11 17 0.0 4.8 0.00 0.94 0.89 96 1015.5
20260507165030 11 139 0.0 4.8 0.00 0.94 0.89 97 1015.6
20260507164524 11 207 1.6 6.4 0.00 0.94 0.89 97 1015.6
20260507164024 11 69 1.6 9.7 0.00 0.94 0.89 98 1015.7
20260507163524 11 126 1.6 9.7 0.00 0.94 0.89 98 1015.7
20260507163024 11 117 0.0 3.2 0.00 0.94 0.89 98 1015.7
20260507162524 10 103 0.0 4.8 0.00 0.94 0.89 98 1015.7
20260507162025 10 104 1.6 4.8 0.00 0.94 0.89 98 1015.8
20260507161519 10 299 0.0 3.2 0.00 0.94 0.89 98 1015.8
20260507161240 10 299 0.0 1.6 0.00 0.94 0.89 98 1015.8
20260507160520 10 299 0.0 0.0 0.00 0.94 0.89 98 1015.8
20260507160015 10 299 0.0 0.0 0.00 0.94 0.89 98 1015.9
20260507155515 9 299 0.0 1.6 0.00 0.94 0.89 98 1015.9
20260507155016 9 299 0.0 3.2 0.00 0.94 0.89 98 1015.8
20260507154506 9 299 0.0 4.8 0.00 0.94 0.89 98 1015.7
20260507154006 9 299 0.0 4.8 0.03 0.94 0.89 98 1015.8
20260507153508 9 299 0.0 3.2 0.08 0.94 0.89 98 1015.7
20260507153231 9 299 0.0 0.0 0.13 0.94 0.89 97 1015.6
20260507152934 8 299 0.0 0.0 0.15 0.94 0.89 97 1015.6
20260507151941 8 299 0.0 1.6 0.15 0.94 0.89 97 1015.6
20260507151438 8 299 0.0 1.6 0.18 0.94 0.89 97 1015.6
20260507151410 8 299 0.0 0.0 0.18 0.94 0.89 97 1015.6
20260507150653 8 299 0.0 0.0 0.20 0.94 0.89 97 1015.5
20260507145916 8 299 0.0 1.6 0.20 0.94 0.89 97 1015.5
20260507145419 8 299 0.0 1.6 0.20 0.94 0.89 97 1015.5
20260507144912 8 299 0.0 0.0 0.20 0.94 0.89 97 1015.4
20260507144409 8 299 0.0 0.0 0.20 0.94 0.89 97 1015.5
20260507143856 8 299 0.0 0.0 0.15 0.89 0.86 97 1015.3
20260507143354 8 299 0.0 0.0 0.10 0.84 0.81 97 1015.3
20260507142852 8 299 0.0 0.0 0.08 0.81 0.76 97 1015.3
20260507142353 8 299 0.0 0.0 0.05 0.79 0.74 97 1015.4
20260507141852 8 299 0.0 0.0 0.05 0.79 0.74 97 1015.3
20260507141351 8 299 0.0 0.0 0.03 0.76 0.71 97 1015.3
20260507140842 8 299 0.0 0.0 0.03 0.76 0.71 97 1015.3
20260507140613 8 299 0.0 0.0 0.00 0.74 0.69 97 1015.1
20260507135843 8 299 0.0 0.0 0.00 0.74 0.69 97 1015.0
20260507135344 8 299 0.0 0.0 0.00 0.74 0.69 97 1014.9
20260507134838 8 299 0.0 0.0 0.00 0.74 0.69 97 1014.9
20260507134336 7 299 0.0 0.0 0.00 0.74 0.69 97 1014.9
20260507133828 7 299 0.0 0.0 0.00 0.74 0.69 97 1014.9
20260507133325 7 299 0.0 0.0 0.00 0.74 0.69 97 1014.8
20260507132813 7 299 0.0 0.0 0.00 0.74 0.69 97 1014.7
20260507132316 7 299 0.0 0.0 0.00 0.74 0.69 96 1014.7
20260507131816 7 299 0.0 0.0 0.00 0.74 0.69 96 1014.7
20260507131321 7 299 0.0 0.0 0.00 0.74 0.69 96 1014.7
20260507130809 7 299 0.0 0.0 0.00 0.74 0.69 96 1014.6
20260507130304 7 299 0.0 0.0 0.00 0.74 0.69 96 1014.4
20260507125759 7 299 0.0 0.0 0.00 0.74 0.69 96 1014.4
20260507125249 7 299 0.0 0.0 0.00 0.74 0.69 96 1014.4
20260507124748 7 299 0.0 0.0 0.00 0.74 0.69 96 1014.4
20260507124239 7 299 0.0 0.0 0.00 0.74 0.69 96 1014.3
20260507123740 7 299 0.0 0.0 0.00 0.74 0.69 96 1014.3
20260507123500 7 299 0.0 0.0 0.00 0.74 0.69 96 1014.3
20260507123224 7 299 0.0 0.0 0.00 0.74 0.69 96 1014.4
20260507122240 7 299 0.0 0.0 0.00 0.74 0.69 96 1014.3
20260507121741 7 299 0.0 0.0 0.00 0.74 0.69 96 1014.1
20260507121505 7 299 0.0 0.0 0.00 0.74 0.69 96 1014.1
20260507120728 7 299 0.0 0.0 0.00 0.74 0.69 96 1014.0
20260507120213 7 299 0.0 0.0 0.00 0.74 0.69 96 1014.0
20260507115711 7 299 0.0 0.0 0.00 0.74 0.69 96 1014.0
20260507115210 7 299 0.0 0.0 0.00 0.74 0.69 95 1013.9
20260507114710 7 299 0.0 0.0 0.00 0.74 0.69 95 1013.9
20260507114211 7 299 0.0 0.0 0.00 0.74 0.69 95 1014.0
20260507113937 7 299 0.0 0.0 0.00 0.74 0.69 95 1014.0
20260507113206 7 299 0.0 0.0 0.00 0.74 0.69 95 1013.9
20260507112702 7 299 0.0 0.0 0.00 0.74 0.69 95 1013.9
20260507112146 7 299 0.0 0.0 0.00 0.74 0.69 95 1013.9
20260507111644 7 299 0.0 0.0 0.00 0.74 0.69 95 1013.9
20260507111136 7 299 0.0 0.0 0.00 0.74 0.69 95 1013.9
20260507110637 7 299 0.0 0.0 0.00 0.74 0.69 95 1013.7
20260507110140 7 299 0.0 0.0 0.00 0.74 0.69 94 1013.8
20260507105637 7 299 0.0 0.0 0.00 0.74 0.69 94 1013.8
20260507105122 7 299 0.0 0.0 0.00 0.74 0.69 94 1013.8
20260507104836 7 299 0.0 0.0 0.00 0.74 0.69 94 1013.7
20260507104120 7 299 0.0 0.0 0.00 0.74 0.69 93 1013.6
20260507103611 7 299 0.0 0.0 0.00 0.74 0.69 94 1013.6
20260507103108 7 299 0.0 0.0 0.00 0.74 0.69 94 1013.6
20260507102607 7 299 0.0 0.0 0.00 0.74 0.69 94 1013.6
20260507102110 8 299 0.0 0.0 0.00 0.74 0.69 94 1013.6
20260507101806 8 299 0.0 0.0 0.00 0.74 0.69 94 1013.6
20260507101048 8 299 0.0 0.0 0.00 0.74 0.69 95 1013.7
20260507100549 8 299 0.0 0.0 0.00 0.74 0.69 95 1013.7
20260507100043 8 299 0.0 0.0 0.00 0.74 0.69 95 1013.7
20260507095538 8 299 0.0 0.0 0.00 0.74 0.69 94 1013.8
20260507095033 8 299 0.0 0.0 0.00 0.74 0.69 95 1013.8
20260507094532 8 299 0.0 0.0 0.00 0.74 0.69 95 1013.8
20260507094028 8 299 0.0 0.0 0.00 0.74 0.69 95 1013.8
20260507093515 8 299 0.0 0.0 0.00 0.74 0.69 94 1013.8
20260507093014 8 299 0.0 0.0 0.03 0.74 0.69 94 1013.8
20260507092813 8 299 0.0 0.0 0.10 0.74 0.69 95 1013.8
20260507092510 8 299 0.0 0.0 0.05 0.74 0.69 95 1013.8
20260507092445 8 299 0.0 0.0 0.13 0.74 0.69 95 1013.7
20260507091004 8 299 0.0 0.0 0.15 0.74 0.69 95 1013.6
20260507090500 8 299 0.0 0.0 0.18 0.74 0.69 95 1013.8
20260507090000 8 299 0.0 3.2 0.18 0.74 0.69 94 1013.6
20260507085455 9 299 0.0 3.2 0.20 0.74 0.69 94 1014.1
20260507084953 9 299 0.0 0.0 0.20 0.74 0.69 94 1014.4
20260507084656 9 299 0.0 0.0 0.25 0.74 0.69 94 1014.3
20260507083938 9 299 0.0 1.6 0.28 0.74 0.69 94 1014.1
20260507083652 9 299 0.0 3.2 0.30 0.74 0.69 94 1014.1
20260507082936 9 299 0.0 3.2 0.28 0.71 0.66 94 1014.5
20260507082707 9 299 0.0 3.2 0.25 0.66 0.61 94 1014.5
20260507081931 9 299 0.0 0.0 0.41 0.64 0.58 94 1014.9
20260507081432 9 299 0.0 0.0 0.53 0.58 0.56 94 1014.8
20260507081122 9 299 0.0 0.0 0.51 0.56 0.51 93 1014.6
20260507081011 9 299 0.0 0.0 0.53 0.58 0.53 94 1014.8
20260507075927 9 299 0.0 0.0 0.48 0.53 0.51 93 1014.5
20260507075425 9 299 0.0 0.0 0.48 0.53 0.48 93 1014.3
20260507074917 9 299 0.0 0.0 0.46 0.51 0.48 93 1014.3
20260507074413 9 299 0.0 0.0 0.43 0.48 0.43 92 1014.3
20260507073912 9 299 0.0 0.0 0.41 0.46 0.41 92 1014.0
20260507073412 9 299 0.0 4.8 0.38 0.43 0.41 92 1014.1
20260507072908 9 299 0.0 6.4 0.38 0.43 0.38 91 1014.1
20260507072452 9 322 1.6 6.4 0.30 0.36 0.33 91 1014.1
20260507071908 10 323 1.6 8.0 0.18 0.23 0.23 91 1014.0
20260507071403 9 316 1.6 8.0 0.00 0.05 0.00 91 1013.7
20260507070858 9 0 1.6 6.4 0.00 0.05 0.00 92 1013.8
20260507070359 9 279 0.0 3.2 0.00 0.05 0.00 92 1013.1
20260507065859 10 279 0.0 3.2 0.00 0.05 0.00 92 1012.6
20260507065359 10 279 0.0 3.2 0.00 0.05 0.00 91 1012.1
20260507064902 10 279 0.0 3.2 0.00 0.05 0.00 91 1011.9
20260507064349 10 279 0.0 0.0 0.00 0.05 0.00 91 1012.0
20260507063840 10 279 0.0 0.0 0.00 0.05 0.00 91 1012.1
20260507063333 10 279 0.0 1.6 0.00 0.05 0.00 91 1012.6
20260507062830 10 279 0.0 1.6 0.00 0.05 0.00 91 1012.5
20260507062330 10 279 0.0 1.6 0.00 0.05 0.00 91 1012.6
20260507061830 10 279 0.0 0.0 0.00 0.05 0.00 91 1012.6
20260507061548 10 279 0.0 0.0 0.00 0.05 0.00 91 1012.2
20260507060825 10 279 0.0 0.0 0.00 0.05 0.00 91 1012.6
20260507060321 10 279 0.0 0.0 0.00 0.05 0.00 90 1012.5
20260507060034 10 279 0.0 0.0 0.00 0.05 0.05 90 1012.4
20260507055524 10 279 0.0 1.6 0.00 0.05 0.05 90 1012.4
20260507054806 10 279 0.0 1.6 0.00 0.05 0.05 90 1012.2
20260507054305 10 279 0.0 0.0 0.00 0.05 0.05 89 1012.1
20260507053811 10 279 0.0 1.6 0.00 0.05 0.05 89 1012.0
20260507053302 10 279 0.0 1.6 0.00 0.05 0.05 88 1012.0
20260507052801 10 279 0.0 0.0 0.03 0.05 0.05 88 1011.9
20260507052306 11 279 0.0 0.0 0.05 0.05 0.05 87 1011.8
20260507051752 11 279 0.0 3.2 0.05 0.05 0.05 86 1011.8
20260507051253 11 279 0.0 3.2 0.05 0.05 0.05 85 1011.8
20260507051232 11 279 0.0 0.0 0.05 0.05 0.05 84 1011.8
20260507050247 11 279 0.0 4.8 0.05 0.05 0.05 83 1012.0
20260507045740 11 279 0.0 8.0 0.05 0.05 0.05 82 1012.0
20260507045237 11 296 3.2 8.0 0.05 0.05 0.05 80 1012.4
20260507044739 11 299 3.2 14.5 0.05 0.05 0.05 82 1012.0
20260507044238 11 9 3.2 14.5 0.05 0.05 0.05 80 1011.6
20260507043738 11 325 3.2 12.9 0.05 0.05 0.05 82 1011.8
20260507043238 11 5 3.2 12.9 0.05 0.05 0.05 81 1011.6
20260507042738 11 212 1.6 12.9 0.03 0.03 0.03 80 1011.5
20260507042234 11 330 3.2 12.9 0.00 0.00 0.00 73 1011.5
20260507041731 11 206 3.2 6.4 0.00 0.00 0.00 71 1011.6
20260507041447 11 292 0.0 3.2 0.00 0.00 0.00 76 1011.6
20260507040724 11 292 0.0 3.2 0.00 0.00 0.00 75 1011.4
20260507040701 11 292 0.0 1.6 0.00 0.00 0.00 74 1011.4
20260507035728 11 292 0.0 3.2 0.00 0.00 0.00 74 1011.5
20260507035429 11 292 0.0 3.2 0.00 0.00 0.00 74 1011.6
20260507034709 11 292 0.0 3.2 0.00 0.00 0.00 73 1011.5
20260507034159 11 292 0.0 3.2 0.00 0.00 0.00 73 1011.5
20260507033700 11 292 0.0 3.2 0.00 0.00 0.00 72 1011.4
20260507033200 11 292 0.0 3.2 0.00 0.00 0.00 71 1011.4
20260507032700 11 292 0.0 3.2 0.00 0.00 0.00 71 1011.4
20260507032422 12 292 0.0 1.6 0.00 0.00 0.00 70 1011.4
20260507031656 12 292 0.0 1.6 0.00 0.00 0.00 69 1011.4
20260507031158 12 292 0.0 3.2 0.00 0.00 0.00 68 1011.5
20260507030657 12 292 0.0 3.2 0.00 0.00 0.00 67 1011.5
20260507030416 13 292 0.0 0.0 0.00 0.00 0.00 66 1011.5
20260507025656 13 292 0.0 1.6 0.00 0.00 0.00 65 1011.5
20260507025157 13 292 0.0 3.2 0.00 0.00 0.00 64 1011.5
20260507024654 14 292 0.0 3.2 0.00 0.00 0.00 64 1011.5
20260507024151 14 292 0.0 0.0 0.00 0.00 0.00 61 1011.5
20260507023643 15 292 0.0 3.2 0.00 0.00 0.00 62 1011.5
20260507023136 15 292 0.0 3.2 0.00 0.00 0.00 61 1011.4
20260507022638 15 292 0.0 0.0 0.00 0.00 0.00 59 1011.4
20260507022137 15 292 0.0 0.0 0.00 0.00 0.00 60 1011.5
20260507021633 16 292 0.0 3.2 0.00 0.00 0.00 59 1011.5
20260507021346 16 292 0.0 4.8 0.00 0.00 0.00 58 1011.4
20260507020617 16 292 0.0 0.0 0.00 0.00 0.00 54 1011.2
20260507020110 16 292 0.0 0.0 0.00 0.00 0.00 53 1011.4
20260507015553 16 292 0.0 0.0 0.00 0.00 0.00 52 1011.2
20260507015321 16 292 0.0 1.6 0.00 0.00 0.00 51 1011.2
20260507015045 16 292 0.0 4.8 0.00 0.00 0.00 50 1011.2
20260507014052 16 322 1.6 9.7 0.00 0.00 0.00 49 1011.2
20260507013603 16 5 1.6 12.9 0.00 0.00 0.00 47 1011.2
20260507013054 17 273 4.8 12.9 0.00 0.00 0.00 47 1011.2
20260507012548 17 207 1.6 9.7 0.00 0.00 0.00 47 1011.4
20260507012311 17 248 1.6 4.8 0.00 0.00 0.00 47 1011.4
20260507011549 17 313 1.6 8.0 0.00 0.00 0.00 47 1011.5
20260507011313 17 326 3.2 8.0 0.00 0.00 0.00 46 1011.5
20260507010754 17 321 0.0 4.8 0.00 0.00 0.00 46 1011.6
20260507010024 17 321 0.0 6.4 0.00 0.00 0.00 47 1011.5
20260507005525 17 321 1.6 6.4 0.00 0.00 0.00 45 1011.5
20260507005248 17 334 1.6 6.4 0.00 0.00 0.00 45 1011.6
20260507004520 17 160 0.0 4.8 0.00 0.00 0.00 45 1011.5
20260507004020 17 195 0.0 11.3 0.00 0.00 0.00 46 1011.6
20260507003520 17 153 0.0 11.3 0.00 0.00 0.00 45 1011.7
20260507003023 17 0 0.0 11.3 0.00 0.00 0.00 44 1011.6
20260507002518 17 214 3.2 11.3 0.00 0.00 0.00 43 1011.6
20260507002008 17 319 1.6 9.7 0.00 0.00 0.00 44 1011.7
20260507001505 17 310 0.0 9.7 0.00 0.00 0.00 43 1011.6
20260507001006 17 340 0.0 11.3 0.00 0.00 0.00 43 1011.7
20260507000506 17 237 1.6 11.3 0.00 0.00 0.00 43 1011.7
20260507000008 17 196 1.6 9.7 0.00 0.00 0.00 45 1011.8
20260506235507 17 216 1.6 8.0 0.00 0.00 0.00 44 1011.9
20260506235231 17 336 0.0 3.2 0.00 0.00 0.00 44 1011.9
20260506234502 17 13 0.0 4.8 0.00 0.00 0.00 45 1011.9
20260506233952 17 19 0.0 4.8 0.00 0.00 0.00 43 1012.0
20260506233452 17 132 0.0 3.2 0.00 0.00 0.00 45 1011.9
20260506232951 17 132 0.0 6.4 0.00 0.00 0.00 43 1011.9
20260506232452 17 322 0.0 6.4 0.00 0.00 0.00 43 1012.0
20260506232223 17 346 0.0 4.8 0.00 0.00 0.00 43 1011.9
20260506231711 18 302 0.0 9.7 0.00 0.00 0.00 43 1012.0
20260506230948 18 329 1.6 9.7 0.00 0.00 0.00 41 1012.0
20260506230448 18 180 0.0 4.8 0.00 0.00 0.00 42 1012.1
20260506230215 18 191 0.0 4.8 0.00 0.00 0.00 40 1012.0
20260506225449 19 349 1.6 11.3 0.00 0.00 0.00 39 1012.2
20260506224943 19 339 0.0 11.3 0.00 0.00 0.00 39 1012.2
20260506224439 20 307 1.6 11.3 0.00 0.00 0.00 37 1012.2
20260506223923 20 321 1.6 11.3 0.00 0.00 0.00 39 1012.2
20260506223418 20 259 0.0 4.8 0.00 0.00 0.00 40 1012.1
20260506222913 19 267 0.0 4.8 0.00 0.00 0.00 41 1012.4
20260506222414 19 14 0.0 6.4 0.00 0.00 0.00 38 1012.4
20260506221916 19 17 0.0 6.4 0.00 0.00 0.00 37 1012.5
20260506221410 19 327 0.0 8.0 0.00 0.00 0.00 39 1012.7
20260506221124 19 327 1.6 8.0 0.00 0.00 0.00 38 1012.7
20260506220355 19 322 0.0 4.8 0.00 0.00 0.00 41 1012.8
20260506215854 19 322 0.0 6.4 0.00 0.00 0.00 39 1012.8
20260506215350 19 0 0.0 6.4 0.00 0.00 0.00 39 1012.8
20260506214850 19 334 1.6 9.7 0.00 0.00 0.00 38 1012.9
20260506214350 18 32 3.2 9.7 0.00 0.00 0.00 38 1013.0
20260506213850 18 323 3.2 8.0 0.00 0.00 0.00 39 1013.1
20260506213627 18 232 1.6 6.4 0.00 0.00 0.00 38 1013.3
20260506212848 18 33 0.0 6.4 0.00 0.00 0.00 39 1013.4
20260506212345 18 25 0.0 12.9 0.00 0.00 0.00 38 1013.4
20260506211841 18 40 1.6 12.9 0.00 0.00 0.00 39 1013.5
20260506211340 18 211 1.6 11.3 0.00 0.00 0.00 38 1013.5
20260506210841 18 196 1.6 11.3 0.00 0.00 0.00 39 1013.5
20260506210341 17 300 1.6 17.7 0.00 0.00 0.00 38 1013.6
20260506205341 17 148 3.2 12.9 0.00 0.00 0.00 38 1013.7
20260506204837 17 325 0.0 16.1 0.00 0.00 0.00 38 1013.8
20260506204337 17 150 1.6 16.1 0.00 0.00 0.00 39 1013.8
20260506203837 17 155 3.2 14.5 0.00 0.00 0.00 39 1014.0
20260506203337 17 126 6.4 14.5 0.00 0.00 0.00 38 1014.0
20260506203104 17 180 4.8 14.5 0.00 0.00 0.00 39 1014.1
20260506202337 17 144 1.6 16.1 0.00 0.00 0.00 38 1014.0
20260506201833 17 169 1.6 16.1 0.00 0.00 0.00 42 1014.0
20260506201328 16 304 1.6 14.5 0.00 0.00 0.00 39 1014.3
20260506200823 16 192 1.6 16.1 0.00 0.00 0.00 40 1014.3
20260506200322 16 263 3.2 16.1 0.00 0.00 0.00 39 1014.4
20260506195823 16 90 3.2 16.1 0.00 0.00 0.00 39 1014.5
20260506195541 16 199 1.6 17.7 0.00 0.00 0.00 39 1014.6
20260506194813 16 117 6.4 17.7 0.00 0.00 0.00 38 1014.5
20260506194313 16 211 3.2 12.9 0.00 0.00 0.00 40 1014.7
20260506193813 16 277 1.6 16.1 0.00 0.00 0.00 40 1014.7
20260506193303 16 335 1.6 19.3 0.00 0.00 0.00 41 1014.9
20260506192804 16 215 3.2 19.3 0.00 0.00 0.00 40 1015.0
20260506192307 15 174 1.6 14.5 0.00 0.00 0.00 40 1015.0
20260506191757 15 306 1.6 14.5 0.00 0.00 0.00 39 1015.1
20260506191255 15 105 4.8 12.9 0.00 0.00 0.00 39 1015.1
20260506190755 15 317 0.0 16.1 0.00 0.00 0.00 42 1015.1
20260506190249 15 352 3.2 16.1 0.00 0.00 0.00 42 1015.3
20260506185750 15 254 3.2 14.5 0.00 0.00 0.00 40 1015.3
20260506185250 15 240 3.2 11.3 0.00 0.00 0.00 41 1015.4
20260506184750 15 348 0.0 8.0 0.00 0.00 0.00 40 1015.5
20260506184251 15 312 3.2 8.0 0.00 0.00 0.00 42 1015.6